Location: Les Jeannots
(43.2262°N, 5.5774°E)
Time: 17:41:18
(UTC+00:00)

DELTA 2 R/B (1) - Pass Details

Date: 05 July 2020
Orbit: 790 x 803 km, 39.6° (Epoch: 12 August)

Event Time Altitude Azimuth Distance (km) Brightness Sun altitude
Rises 20:35:47 0° 219° (SW) 3,276 6.7 -11.4°
Reaches altitude 10° 20:38:36 10° 207° (SSW) 2,351 5.8 -11.7°
Maximum altitude 20:43:08 26° 152° (SSE) 1,510 4.5 -12.3°
Drops below altitude 10° 20:47:43 10° 97° (E) 2,365 5.6 -12.8°
Enters shadow 20:49:15 - 89° (E) 2,858 6.1 -13.0°
